Starlink 11430

operational
NORAD ID: 62916 Int'l Des: 2025-027 Owner: SPXS Country: US Constellation: starlink
LEOCIRCULAR

Über Starlink 11430

Beschreibung wird geladen...

Live-Position

3D-Globus wird geladen...

Nächste Überflüge

Höhenverlauf

Altitude vs Time

uPlot chart will show altitude changes over time

Zweizeiliger Elementsatz

1 62916U 25027K 25303.76451198 .00039669 00000-0 31050-3 0 9999
2 62916 42.9990 51.2233 0001907 279.4580 80.6072 15.70890607 42751
Epoch: 30. Okt. 2025 • Age: 17 hours

Aktueller Status

Höhe 356.1 km
Geschwindigkeit 7.70 km/s
Subsatellitenpunkt 16.68°N, 8.69°W
Startdatum 8. Feb. 2025
Alter 0.7 years
Typ internet

Technische Details

Klassifizierung Payload
Masse 960.00 kg
Trockenmasse 910.00 kg
Gesamtmasse 960.00 kg
Länge 0.30 m
Durchmesser 4.10 m
Spannweite 29.00 m
Form Box + pan
Hersteller SPXS
Bus-Typ Starlink V2MD
Phasenstatus In Orbit
Besitzer/Staat SPXS/US

Große Konstellationen

Loading constellations...